Home > Weather > Kerpen > Past weeks

Flag for Germany Past Weather in Kerpen, North Rhine-Westphalia, Germany — Yesterday and Last 2 Weeks

Now
55 °F

Cool.


Feels Like: 55 °F
Forecast: 53 / 67 °F
Wind: 5 mph from South

Location: Noervenich

Current Time: Jun 26, 2016 at 1:25:13 AM

Latest Report: Jun 26, 2016 at 12:20 AM


Visibility: N/A

Pressure: 30.04 "Hg

Humidity: 94%

Dew Point: 54 °F

Location of KerpenLocation

Past Weather in Kerpen — Graph

°F

Kerpen Temperature Yesterday

Maximum temperature yesterday: 68 °F (at 1:20 AM)
Minimum temperature yesterday: 57 °F (at 10:20 PM)
Average temperature yesterday: 61 °F

High & Low Weather Summary for the Past Weeks

 TemperatureHumidityPressure
High91 °F (Jun 23, 2:20 PM)100% (Jun 16, 11:20 PM)30.27 "Hg (Jun 16, 11:20 PM)
Low48 °F (Jun 16, 4:20 AM)41% (Jun 11, 4:20 PM)29.47 "Hg (Jun 14, 5:20 PM)
Average63 °F80%29.88 "Hg
* Reported Jun 10 11:20 PM — Jun 25 11:20 PM, Kerpen, Weather by CustomWeather, © 2016

Note: Actual official high and low records may vary slightly from our data, if they occured in-between our weather recording intervals... More about our weather records

Advertising

Kerpen Weather History for the Previous 24 Hours

Scroll right to see more
 ConditionsComfort  
Time TempWeatherWind HumidityBarometerVisibility
11:20 PM
Sat, Jun 25
57 °FCool.3 mph88%30.04 "HgN/A
10:20 PM57 °FCool.1 mph94%30.04 "HgN/A
9:20 PM59 °FCool.2 mph88%30.04 "HgN/A
8:20 PM61 °FCool.2 mph88%30.01 "HgN/A
7:20 PM59 °FCool.5 mph88%30.01 "HgN/A
6:20 PM59 °FCool.8 mph88%30.01 "HgN/A
5:20 PM59 °FCool.13 mph88%30.01 "HgN/A
4:20 PM59 °FCool.8 mph94%30.01 "Hg6 mi
3:20 PM59 °FCool.9 mph94%30.01 "Hg2 mi
2:20 PM61 °FCool.10 mph94%29.98 "Hg6 mi
1:20 PM61 °FCool.7 mph88%29.98 "Hg3 mi
12:20 PM61 °FCool.5 mph94%29.98 "Hg2 mi
11:20 AM59 °FCool.7 mph100%29.98 "Hg1 mi
10:20 AM61 °FCool.9 mph94%29.95 "HgN/A
9:20 AM61 °FCool.8 mph88%29.98 "HgN/A
8:20 AM63 °FMild.6 mph88%29.98 "HgN/A
7:20 AM63 °FMild.5 mph88%29.98 "Hg4 mi
6:20 AM63 °FFog.5 mph94%29.98 "Hg3 mi
5:20 AM63 °FOvercast.5 mph94%30.01 "Hg5 mi
4:20 AM63 °FLight rain. Mostly cloudy.3 mph94%30.01 "Hg5 mi
3:20 AM64 °FPartly cloudy.3 mph83%30.01 "HgN/A
2:20 AM66 °FPartly cloudy.6 mph83%30.04 "HgN/A
1:20 AM68 °FPassing clouds.3 mph83%30.07 "HgN/A
Weather by CustomWeather, © 2016

See weather overviewHow to use our weather pages